Date String (YYYY-MM-DD hh:mm:ss) UTC,Instrument flags,absolute air pressure of the measurement (hPa),sample flow rate (lpm),inlet stack bypass flow (lpm),air temperature of the measurement (°C),ambient temperature measured by the external sensor (°C),aerosol sample conditioner tube jacket temperature (°C),OPC LED temperature (°C),internal box temperature (°C),relative humidity of the measurement (%),span deviation,mass concentration of particles derived from Lorenz-Mie calculation of OPC scattering (μg/m³),mass concentration of particles derived from Lorenz-Mie calculation of OPC scattering (μg/m³),mass concentration of particles derived from Lorenz-Mie calculation of OPC scattering (μg/m³)
DateTimeUTC,F1_M11,P_M11,Q1_M11,Q2_M11,T1_M11,T2_M11,T3_M11,T4_M11,T5_M11,U1_M11,ZSPAN_M11,X2_M11,X0_M11,X1_M11
2023-06-06 19:00:00,SystemResetWarning,0831.1,5.02,000.00,030.2,027.9,000.0,038.3,031.1,34.9,0000.7,0011.27,0015.75,0010.69
2023-06-06 19:01:00,SystemResetWarning,0831.1,4.97,000.00,030.4,028.0,000.0,038.3,031.2,33.4,0000.7,0011.47,0015.57,0010.87
2023-06-06 19:02:00,SystemResetWarning,0831.1,5.00,000.00,030.5,027.6,000.0,038.4,031.3,32.7,0000.8,0011.58,0016.20,0010.98
2023-06-06 19:03:00,SystemResetWarning,0831.1,5.00,000.00,030.6,025.9,000.0,038.3,031.3,32.2,0000.8,0011.78,0016.90,0011.12
2023-06-06 19:04:00,SystemResetWarning,0831.0,5.01,000.00,030.6,025.3,000.0,038.3,031.2,33.3,0001.0,0011.86,0017.12,0011.20
2023-06-06 19:05:00,SystemResetWarning,0831.0,5.01,000.00,030.5,025.5,000.0,038.4,030.9,33.3,0001.1,0011.95,0017.16,0011.29
2023-06-06 19:06:00,SystemResetWarning,0831.0,5.01,000.00,030.4,025.8,000.0,038.4,030.8,31.4,0001.0,0011.96,0017.03,0011.32
2023-06-06 19:07:00,SystemResetWarning,0831.0,5.00,000.00,030.3,026.1,000.0,038.4,030.8,30.1,0001.0,0012.01,0017.03,0011.37
2023-06-06 19:08:00,SystemResetWarning,0831.0,5.00,000.00,030.3,026.5,000.0,038.5,030.8,28.8,0001.2,0012.08,0017.48,0011.43
2023-06-06 19:09:00,SystemResetWarning,0831.0,5.00,000.00,030.3,026.8,000.0,038.5,030.8,30.1,0001.0,0012.06,0017.39,0011.40
2023-06-06 19:10:00,SystemResetWarning,0831.0,5.00,000.00,030.3,027.1,000.0,038.5,030.9,30.0,0001.0,0011.91,0017.40,0011.25
2023-06-06 19:11:00,SystemResetWarning,0831.0,5.00,000.00,030.3,027.3,000.0,038.5,030.9,32.0,0000.9,0011.76,0017.15,0011.13
2023-06-06 19:12:00,SystemResetWarning,0831.1,5.00,000.00,030.3,027.5,000.0,038.5,031.0,33.7,0000.8,0011.80,0017.31,0011.22
2023-06-06 19:13:00,SystemResetWarning,0831.1,5.00,000.00,030.2,027.6,000.0,038.5,031.0,33.7,0000.8,0012.10,0018.00,0011.49
2023-06-06 19:14:00,SystemResetWarning,0831.2,5.00,000.00,030.2,027.7,000.0,038.5,031.1,34.4,0000.9,0012.47,0018.46,0011.84
2023-06-06 19:15:00,SystemResetWarning,0831.1,4.99,000.00,030.2,027.8,000.0,038.5,031.1,34.7,0000.5,0012.92,0019.04,0012.26
2023-06-06 19:16:00,SystemResetWarning,0831.1,4.99,000.00,030.2,027.9,000.0,038.5,031.1,34.5,0000.2,0013.35,0019.49,0012.68
2023-06-06 19:17:00,SystemResetWarning,0831.1,5.00,000.00,030.3,027.9,000.0,038.6,031.1,35.2,0000.4,0013.86,0020.61,0013.16
2023-06-06 19:18:00,SystemResetWarning,0831.2,5.01,000.00,030.4,027.9,000.0,038.6,031.2,34.6,0000.1,0014.40,0021.93,0013.68
2023-06-06 19:19:00,SystemResetWarning,0831.1,4.99,000.00,030.5,027.6,000.0,038.6,031.3,33.8,-000.0,0014.82,0021.93,0014.09
2023-06-06 19:20:00,SystemResetWarning,0831.1,4.97,000.00,030.6,026.0,000.0,038.5,031.3,34.4,-000.1,0015.28,0022.43,0014.54
2023-06-06 19:21:00,SystemResetWarning,0831.1,5.04,000.00,030.7,025.3,000.0,038.5,031.3,34.1,0000.2,0015.73,0022.88,0015.01
2023-06-06 19:22:00,SystemResetWarning,0831.1,4.98,000.00,030.6,025.4,000.0,038.5,030.9,33.6,0000.2,0016.10,0023.13,0015.37
2023-06-06 19:23:00,SystemResetWarning,0831.1,5.01,000.00,030.5,025.7,000.0,038.5,030.8,33.3,0000.3,0016.23,0023.35,0015.49
2023-06-06 19:24:00,SystemResetWarning,0831.2,5.01,000.00,030.5,026.1,000.0,038.5,030.8,32.2,0000.3,0016.11,0022.91,0015.36
2023-06-06 19:25:00,SystemResetWarning,0831.1,4.99,000.00,030.4,026.4,000.0,038.6,030.9,31.2,0000.4,0015.77,0022.08,0015.05
2023-06-06 19:26:00,SystemResetWarning,0831.1,5.00,000.00,030.4,026.7,000.0,038.6,030.9,32.8,0000.7,0015.44,0021.21,0014.76
2023-06-06 19:27:00,SystemResetWarning,0831.1,5.00,000.00,030.4,027.0,000.0,038.6,030.9,32.9,0001.1,0015.19,0020.93,0014.55
2023-06-06 19:28:00,SystemResetWarning,0831.1,5.00,000.00,030.4,027.2,000.0,038.6,031.0,32.4,0001.0,0015.01,0020.41,0014.37
2023-06-06 19:29:00,SystemResetWarning,0831.1,4.99,000.00,030.4,027.4,000.0,038.6,031.0,33.5,0001.2,0014.89,0019.54,0014.22
2023-06-06 19:30:00,SystemResetWarning,0831.1,4.99,000.00,030.4,027.6,000.0,038.6,031.1,32.8,0001.3,0014.88,0019.57,0014.21
2023-06-06 19:31:00,SystemResetWarning,0831.1,5.00,000.00,030.4,027.7,000.0,038.6,031.1,33.8,0001.5,0014.86,0019.59,0014.19
2023-06-06 19:32:00,SystemResetWarning,0831.2,4.99,000.00,030.4,027.8,000.0,038.7,031.1,33.5,0001.6,0014.83,0019.50,0014.14
2023-06-06 19:33:00,SystemResetWarning,0831.1,4.99,000.00,030.4,027.9,000.0,038.7,031.1,32.6,0001.6,0014.84,0019.49,0014.13
2023-06-06 19:34:00,SystemResetWarning,0831.1,5.00,000.00,030.4,027.9,000.0,038.7,031.2,32.9,0001.5,0014.81,0019.30,0014.13
2023-06-06 19:35:00,SystemResetWarning,0831.1,4.98,000.00,030.4,026.7,000.0,038.6,031.3,33.7,0001.5,0014.90,0019.05,0014.25
2023-06-06 19:36:00,SystemResetWarning,0831.1,5.01,000.00,030.4,025.5,000.0,038.6,031.3,33.8,0001.5,0015.09,0019.03,0014.45
2023-06-06 19:37:00,SystemResetWarning,0831.1,5.02,000.00,030.3,025.3,000.0,038.5,031.0,33.4,0001.3,0015.27,0019.24,0014.61
2023-06-06 19:38:00,SystemResetWarning,0831.2,4.99,000.00,030.2,025.5,000.0,038.5,030.8,32.7,0001.0,0015.33,0019.43,0014.66
2023-06-06 19:39:00,SystemResetWarning,0831.1,5.00,000.00,030.1,025.9,000.0,038.5,030.7,33.1,0000.9,0015.36,0019.72,0014.72
2023-06-06 19:40:00,SystemResetWarning,0831.1,5.01,000.00,030.0,026.3,000.0,038.5,030.8,33.6,0000.9,0015.33,0019.55,0014.75
2023-06-06 19:41:00,SystemResetWarning,0831.1,5.01,000.00,030.0,026.6,000.0,038.5,030.8,33.1,0000.9,0015.27,0020.02,0014.71
2023-06-06 19:42:00,SystemResetWarning,0831.1,5.00,000.00,030.0,026.9,000.0,038.5,030.9,33.0,0000.7,0015.22,0020.08,0014.67
2023-06-06 19:43:00,SystemResetWarning,0831.1,5.00,000.00,030.0,027.2,000.0,038.5,030.9,32.1,0000.5,0015.16,0020.43,0014.59
2023-06-06 19:44:00,SystemResetWarning,0831.1,5.00,000.00,030.0,027.4,000.0,038.5,031.0,32.7,0000.7,0015.03,0020.38,0014.49
2023-06-06 19:45:00,SystemResetWarning,0831.1,5.01,000.00,030.0,027.6,000.0,038.5,031.0,33.0,0000.7,0014.88,0020.19,0014.34
2023-06-06 19:46:00,SystemResetWarning,0831.1,5.00,000.00,030.0,027.7,000.0,038.5,031.0,32.5,0000.7,0014.76,0020.12,0014.20
2023-06-06 19:47:00,SystemResetWarning,0831.2,5.00,000.00,030.0,027.8,000.0,038.5,031.1,32.4,0000.6,0014.62,0019.98,0014.05
2023-06-06 19:48:00,SystemResetWarning,0831.2,5.00,000.00,030.0,027.9,000.0,038.5,031.1,32.3,0000.6,0014.52,0020.14,0013.92
2023-06-06 19:49:00,SystemResetWarning,0831.1,5.00,000.00,030.0,028.0,000.0,038.5,031.1,33.7,0000.6,0014.42,0019.99,0013.82
2023-06-06 19:50:00,SystemResetWarning,0831.1,4.98,000.00,030.0,027.5,000.0,038.4,031.2,32.2,0000.9,0014.25,0019.34,0013.66
2023-06-06 19:51:00,SystemResetWarning,0831.1,5.00,000.00,030.0,025.7,000.0,038.4,031.2,31.0,0001.1,0014.13,0019.17,0013.53
2023-06-06 19:52:00,SystemResetWarning,0831.2,5.02,000.00,030.0,025.1,000.0,038.3,031.2,30.1,0001.0,0013.94,0018.34,0013.35
2023-06-06 19:53:00,SystemResetWarning,0831.1,5.00,000.00,029.9,025.3,000.0,038.3,030.8,31.3,0001.1,0013.77,0018.14,0013.17
2023-06-06 19:54:00,SystemResetWarning,0831.1,5.00,000.00,029.8,025.6,000.0,038.3,030.7,31.2,0001.3,0013.62,0017.56,0013.02
2023-06-06 19:55:00,SystemResetWarning,0831.1,5.01,000.00,029.7,026.0,000.0,038.3,030.7,31.5,0001.3,0013.45,0017.24,0012.86
2023-06-06 19:56:00,SystemResetWarning,0831.1,5.00,000.00,029.7,026.4,000.0,038.3,030.7,32.1,0001.4,0013.33,0017.14,0012.72
2023-06-06 19:57:00,SystemResetWarning,0831.1,5.00,000.00,029.7,026.7,000.0,038.2,030.8,31.0,0001.4,0013.16,0016.91,0012.58
2023-06-06 19:58:00,SystemResetWarning,0831.0,5.01,000.00,029.7,027.0,000.0,038.2,030.8,31.2,0001.5,0013.02,0016.78,0012.47
2023-06-06 19:59:00,SystemResetWarning,0831.1,4.99,000.00,029.7,027.3,000.0,038.2,030.9,31.4,0001.7,0012.85,0016.37,0012.33
